[[{"header":{"parameterUnit":"m.s-1","parameterCategory":1,"la1":30.2991,"la2":30.254,"lo1":-89.0895,"lo2":-89.0444,"dy":0.0017,"dx":0.0017,"nx":28,"ny":28,"refTime":"2025-07-30T03:00:00:Z","depth":0,"parameterNumber":2,"parameterNumberName":"U-component_of_WINDS"},"data":[0,0,0,0,0,0,0,0,0,0,0,0,0,0,0,0,0,0,0,0,0,0,0,0,0,0,0,0,0,0,0,0,0,0,0,0,0,0,0,0,0,0,0,0,0,0,0,0,0,0,0,0,0,0,0,0,0,0,1.3625,1.3625,0,1.362,1.3619,1.3619,1.3597,1.3596,1.3596,1.3595,1.3589,1.3589,1.3589,0,0,0,0,0,0,0,0,0,0,0,0,0,1.3617,1.3617,1.3625,1.3625,1.3625,1.362,1.3619,1.3619,1.3597,1.3596,1.3596,1.3595,1.3589,1.3589,1.3589,0,0,0,0,0,0,0,0,0,0,0,0,0,1.3617,1.3618,1.3625,1.3613,1.3612,1.362,1.3619,1.3619,1.3597,1.3596,1.3595,1.3595,1.3589,1.3589,1.359,1.3608,0,0,1.3591,1.3591,0,0,0,0,0,0,0,0,1.3617,1.3617,1.3615,1.3614,1.3613,1.3608,1.3614,1.3616,1.3597,1.3603,1.3595,1.3594,1.3596,1.3596,1.3596,1.3608,1.3607,1.3591,1.3591,1.3591,1.3592,0,0,0,0,0,0,0,1.3617,1.3617,1.3623,1.3615,1.3614,1.3608,1.3607,1.3614,1.3604,1.3602,1.3601,1.36,1.3595,1.3596,1.3596,1.3607,1.3591,1.3591,1.3592,1.3592,1.3634,1.3635,0,0,0,0,0,0,1.3619,1.3618,1.3623,1.3623,1.3613,1.3609,1.3608,1.361,1.3604,1.3602,1.3601,1.3599,1.3595,1.3595,1.3596,1.3617,1.3591,1.3592,1.3592,1.3633,1.3634,1.3635,0,0,0,0,0,0,1.3619,1.362,1.3623,1.362,1.362,1.361,1.3613,1.3611,1.3611,1.3603,1.3601,1.3604,1.3595,1.3595,1.3605,1.3616,1.3592,1.3593,1.3632,1.3634,1.3635,1.3659,0,0,0,0,0,0,1.3619,1.362,1.3626,1.362,1.362,1.3633,1.3614,1.3611,1.3612,1.361,1.3605,1.3603,1.3594,1.3605,1.3606,1.3616,1.3593,1.3631,1.3633,1.3634,1.3657,1.3661,1.3664,0,0,0,0,0,1.3618,1.3633,1.3627,1.3628,1.3628,1.3634,1.3634,1.3623,1.3613,1.362,1.3615,1.3603,1.3615,1.3606,1.3607,1.3618,1.363,1.3632,1.3634,1.3656,1.366,1.3664,0,0,0,0,0,0,1.364,1.3632,1.3625,1.3638,1.3637,1.363,1.3638,1.3629,1.363,1.3628,1.3615,1.3614,1.3626,1.3623,1.3613,1.3636,1.3621,1.3623,1.3637,1.3641,1.3645,1.3645,1.3593,0,0,0,0,0,1.3647,1.3652,1.3645,1.3657,1.3657,1.3648,1.365,1.3642,1.364,1.3639,1.3634,1.3633,1.3636,1.3639,1.3641,1.3657,1.3656,1.3665,1.3669,1.3672,1.3674,1.3682,1.3686,1.3641,1.3641,1.3641,0,0,1.366,1.3656,1.366,1.3661,1.3659,1.3665,1.3647,1.3654,1.3658,1.364,1.3649,1.3646,1.3644,1.3657,1.3662,1.3655,1.3686,1.3674,1.3677,1.3677,1.3684,1.3688,1.3692,1.3643,1.3642,1.3642,0,0,1.3687,1.3685,1.3695,1.3694,1.3691,1.3685,1.3688,1.3683,1.368,1.3689,1.3676,1.3681,1.3687,1.3686,1.3686,1.3715,1.3704,1.3716,1.3734,1.3742,1.3745,1.3749,1.3758,1.3762,1.3718,1.3718,1.3718,0,1.3704,1.3712,1.3701,1.3709,1.371,1.3695,1.3706,1.3705,1.3703,1.3704,1.3696,1.3704,1.3701,1.3714,1.3721,1.3722,1.3724,1.3716,1.3746,1.3749,1.3751,1.3761,1.3764,1.3719,1.3719,1.3719,1.3719,0,1.3732,1.3738,1.3747,1.3746,1.3748,1.3757,1.3748,1.3752,1.3745,1.374,1.375,1.3746,1.3748,1.3751,1.3743,1.3763,1.3758,1.3748,1.3733,1.3757,1.3766,1.3769,1.3721,1.3721,1.372,1.372,0,0,1.3771,1.3766,1.3769,1.3769,1.3766,1.377,1.3779,1.3781,1.3784,1.3784,1.3791,1.3797,1.3788,1.3789,1.3781,1.3789,1.3811,1.3778,1.3778,1.3784,1.3832,1.3839,1.3843,1.3805,1.3805,1.3806,1.3832,0,1.3796,1.381,1.3802,1.3818,1.3823,1.381,1.3817,1.3817,1.3813,1.3817,1.3812,1.3817,1.3805,1.3805,1.3812,1.3807,1.382,1.3805,1.3811,1.3811,1.3811,1.3847,1.3854,1.3879,1.3835,1.3836,1.3836,0,1.3827,1.3829,1.3845,1.3842,1.3844,1.385,1.3852,1.3856,1.3855,1.3852,1.3853,1.3844,1.3853,1.3839,1.385,1.384,1.3842,1.384,1.3841,1.384,1.3824,1.3847,1.3887,1.389,1.3841,1.3841,1.384,0,1.3853,1.386,1.387,1.3871,1.3867,1.3872,1.3871,1.3869,1.3872,1.3873,1.3875,1.3877,1.3879,1.3881,1.3873,1.3864,1.3886,1.3871,1.3883,1.3883,1.3887,1.3887,1.3927,1.389,1.389,1.389,1.389,0,1.3882,1.3892,1.3882,1.3889,1.39,1.3891,1.3902,1.39,1.3899,1.3904,1.3894,1.3899,1.3889,1.3894,1.3888,1.3898,1.3899,1.3896,1.3895,1.3897,1.3897,1.3897,1.3895,1.3891,1.3891,1.389,1.389,0,1.3912,1.3906,1.3917,1.3913,1.3913,1.3921,1.3918,1.3924,1.392,1.3927,1.3928,1.3922,1.3927,1.392,1.3924,1.392,1.3934,1.393,1.3934,1.3933,1.3945,1.3944,1.3986,1.3991,1.3951,1.3952,1.3952,0,1.393,1.3938,1.3935,1.3939,1.3938,1.3944,1.3946,1.3938,1.3941,1.3941,1.3947,1.3951,1.3954,1.3963,1.3958,1.3961,1.3957,1.3972,1.3957,1.3959,1.3956,1.3956,1.3956,1.3974,1.3975,1.3975,1.3975,0,1.3963,1.396,1.3964,1.3967,1.397,1.3972,1.3973,1.3977,1.3968,1.3972,1.3977,1.398,1.3985,1.3989,1.3991,1.399,1.3981,1.398,1.3983,1.3985,1.3987,1.3985,1.3941,1.3979,1.3978,1.3978,1.3978,1.3978,1.3987,1.3993,1.3993,1.3998,1.3998,1.4,1.4005,1.4002,1.4006,1.401,1.4005,1.4012,1.4011,1.4014,1.4014,1.4019,1.4012,1.4016,1.4017,1.4018,1.402,1.3987,1.4019,1.4019,1.4019,1.4019,1.4019,0,1.4019,1.4018,1.4023,1.4025,1.4029,1.4021,1.4023,1.4026,1.4032,1.4033,1.4036,1.4043,1.4047,1.4044,1.4047,1.4052,1.4048,1.4053,1.4052,1.4052,1.4026,1.4022,1.4056,1.4056,1.4056,1.4056,1.4056,1.4056,1.4035,1.4046,1.4043,1.4053,1.4053,1.4059,1.4061,1.4062,1.4063,1.407,1.4074,1.4072,1.4071,1.4075,1.4079,1.4078,1.4079,1.4086,1.4083,1.4058,1.4054,1.4051,1.4047,1.4086,1.4086,1.4109,1.4109,1.4109]},{"header":{"parameterUnit":"m.s-1","parameterCategory":1,"la1":30.2991,"la2":30.254,"lo1":-89.0895,"lo2":-89.0444,"dy":0.0017,"dx":0.0017,"nx":28,"ny":28,"refTime":"2025-07-30T03:00:00:Z","depth":0,"parameterNumber":3,"parameterNumberName":"V-component_of_WINDS"},"data":[0,0,0,0,0,0,0,0,0,0,0,0,0,0,0,0,0,0,0,0,0,0,0,0,0,0,0,0,0,0,0,0,0,0,0,0,0,0,0,0,0,0,0,0,0,0,0,0,0,0,0,0,0,0,0,0,0,0,-1.8226,-1.8227,0,-1.8326,-1.8327,-1.8329,-1.8335,-1.8334,-1.8333,-1.8331,-1.8434,-1.8437,-1.8441,0,0,0,0,0,0,0,0,0,0,0,0,0,-1.8039,-1.8042,-1.8225,-1.8227,-1.8228,-1.8326,-1.8327,-1.8329,-1.8335,-1.8334,-1.8332,-1.8331,-1.8432,-1.8437,-1.8441,0,0,0,0,0,0,0,0,0,0,0,0,0,-1.8128,-1.8043,-1.8225,-1.8243,-1.8246,-1.8326,-1.8327,-1.8329,-1.8335,-1.8334,-1.8332,-1.833,-1.8431,-1.8436,-1.8442,-1.8511,0,0,-1.8459,-1.8462,0,0,0,0,0,0,0,0,-1.8123,-1.8135,-1.8239,-1.8242,-1.8245,-1.8316,-1.8299,-1.839,-1.8336,-1.8301,-1.8331,-1.8329,-1.8396,-1.8404,-1.8427,-1.8516,-1.852,-1.846,-1.8463,-1.8466,-1.8467,0,0,0,0,0,0,0,-1.8117,-1.813,-1.8265,-1.8241,-1.8244,-1.8246,-1.8257,-1.8316,-1.8357,-1.8304,-1.8305,-1.8317,-1.8397,-1.8421,-1.8429,-1.8522,-1.846,-1.8465,-1.8468,-1.8471,-1.8674,-1.8676,0,0,0,0,0,0,-1.8107,-1.8125,-1.8262,-1.8268,-1.8178,-1.8251,-1.8263,-1.8295,-1.8356,-1.8364,-1.8318,-1.8317,-1.8413,-1.8423,-1.8433,-1.8519,-1.8466,-1.8471,-1.8474,-1.8672,-1.8674,-1.8677,0,0,0,0,0,0,-1.8103,-1.8119,-1.8258,-1.8197,-1.8215,-1.8256,-1.8292,-1.8298,-1.8322,-1.8367,-1.8374,-1.8335,-1.8412,-1.8425,-1.8492,-1.8522,-1.8474,-1.8479,-1.867,-1.8673,-1.8675,-1.869,0,0,0,0,0,0,-1.8098,-1.8118,-1.8144,-1.8198,-1.8218,-1.8315,-1.8294,-1.8301,-1.8332,-1.8331,-1.8385,-1.8392,-1.8411,-1.8484,-1.8498,-1.8529,-1.8483,-1.8667,-1.8671,-1.8675,-1.8687,-1.8693,-1.8698,0,0,0,0,0,-1.8091,-1.8144,-1.8146,-1.8162,-1.8252,-1.8317,-1.8329,-1.835,-1.8334,-1.8362,-1.8391,-1.8391,-1.8517,-1.849,-1.8506,-1.854,-1.8665,-1.867,-1.8674,-1.8684,-1.8692,-1.8698,0,0,0,0,0,0,-1.8092,-1.8151,-1.8154,-1.8225,-1.8266,-1.8318,-1.8353,-1.8357,-1.8403,-1.84,-1.8424,-1.8436,-1.8503,-1.8528,-1.8498,-1.8611,-1.8589,-1.8597,-1.8592,-1.8599,-1.8605,-1.8597,-1.8488,0,0,0,0,0,-1.8101,-1.8149,-1.8198,-1.8257,-1.8277,-1.8311,-1.834,-1.8353,-1.8397,-1.8414,-1.8447,-1.8489,-1.8538,-1.857,-1.8618,-1.8691,-1.8703,-1.8722,-1.8728,-1.8732,-1.8739,-1.878,-1.8789,-1.8691,-1.8691,-1.8691,0,0,-1.812,-1.8158,-1.8186,-1.8258,-1.8291,-1.834,-1.8326,-1.8378,-1.8415,-1.8422,-1.8487,-1.8514,-1.8562,-1.8632,-1.8665,-1.8656,-1.8768,-1.8738,-1.8741,-1.8745,-1.8785,-1.8795,-1.8803,-1.8694,-1.8694,-1.8693,0,0,-1.8178,-1.8212,-1.8265,-1.8299,-1.8349,-1.8372,-1.8385,-1.8437,-1.8454,-1.8521,-1.8527,-1.8571,-1.8655,-1.869,-1.8718,-1.8792,-1.8793,-1.8806,-1.8836,-1.8876,-1.8884,-1.8891,-1.8917,-1.8926,-1.8813,-1.8813,-1.8813,0,-1.8195,-1.8269,-1.8291,-1.8344,-1.8376,-1.8385,-1.8439,-1.847,-1.8534,-1.8556,-1.8544,-1.8651,-1.8684,-1.8763,-1.8781,-1.8804,-1.8819,-1.88,-1.8881,-1.8888,-1.8895,-1.892,-1.893,-1.8814,-1.8814,-1.8814,-1.8814,0,-1.8287,-1.8339,-1.8375,-1.8437,-1.8473,-1.8526,-1.8556,-1.859,-1.86,-1.8624,-1.8692,-1.8733,-1.8789,-1.8809,-1.8819,-1.889,-1.8882,-1.8876,-1.8855,-1.8905,-1.8929,-1.8939,-1.8816,-1.8815,-1.8815,-1.8815,0,0,-1.8348,-1.8423,-1.8436,-1.8465,-1.8522,-1.8562,-1.8616,-1.8672,-1.87,-1.8744,-1.879,-1.8862,-1.8856,-1.8889,-1.8903,-1.8938,-1.8994,-1.8927,-1.8929,-1.8938,-1.9076,-1.908,-1.9091,-1.8996,-1.8998,-1.9,-1.9072,0,-1.8414,-1.851,-1.8532,-1.8614,-1.8663,-1.8673,-1.872,-1.876,-1.8785,-1.8829,-1.8856,-1.8907,-1.8895,-1.8915,-1.895,-1.898,-1.9022,-1.8975,-1.9039,-1.9041,-1.9027,-1.9104,-1.9109,-1.9174,-1.9081,-1.9083,-1.9084,0,-1.8502,-1.8549,-1.8636,-1.8688,-1.8709,-1.8751,-1.8804,-1.8847,-1.8893,-1.8909,-1.8946,-1.8957,-1.9013,-1.899,-1.9069,-1.9037,-1.9064,-1.9083,-1.9086,-1.9093,-1.9065,-1.9112,-1.9196,-1.9206,-1.9099,-1.9098,-1.9097,0,-1.8538,-1.8623,-1.8687,-1.8711,-1.8773,-1.8802,-1.8829,-1.8874,-1.8906,-1.8953,-1.8975,-1.9027,-1.9056,-1.9096,-1.9122,-1.9102,-1.9199,-1.9177,-1.9213,-1.9213,-1.9233,-1.9231,-1.9322,-1.9251,-1.9251,-1.925,-1.925,0,-1.8609,-1.8662,-1.8704,-1.8743,-1.8803,-1.8828,-1.8887,-1.8915,-1.8955,-1.8999,-1.9011,-1.9053,-1.9084,-1.913,-1.915,-1.9213,-1.9226,-1.924,-1.9244,-1.9239,-1.9237,-1.9257,-1.9253,-1.9253,-1.9252,-1.9252,-1.9251,0,-1.8659,-1.8689,-1.8759,-1.8813,-1.8827,-1.8869,-1.8915,-1.8954,-1.8979,-1.9036,-1.905,-1.909,-1.9145,-1.9174,-1.9243,-1.9256,-1.9327,-1.9329,-1.9311,-1.9313,-1.9348,-1.9344,-1.9454,-1.947,-1.9388,-1.9389,-1.939,0,-1.8702,-1.8743,-1.8801,-1.8832,-1.886,-1.891,-1.8943,-1.897,-1.9005,-1.9061,-1.9093,-1.9149,-1.9195,-1.9283,-1.9318,-1.9371,-1.9374,-1.9409,-1.9382,-1.9375,-1.9375,-1.9372,-1.9377,-1.9414,-1.9414,-1.9415,-1.9415,0,-1.8774,-1.8788,-1.8835,-1.8889,-1.8929,-1.8972,-1.9015,-1.904,-1.9074,-1.9112,-1.9169,-1.9204,-1.9275,-1.9331,-1.9387,-1.9415,-1.9421,-1.9424,-1.9435,-1.9429,-1.9418,-1.9425,-1.9324,-1.9421,-1.9421,-1.942,-1.942,-1.942,-1.8822,-1.886,-1.8907,-1.896,-1.8995,-1.9036,-1.9075,-1.9105,-1.9153,-1.9213,-1.9226,-1.9286,-1.9333,-1.9409,-1.9438,-1.9486,-1.9479,-1.9495,-1.9499,-1.9503,-1.9504,-1.941,-1.9496,-1.9496,-1.9496,-1.9496,-1.9496,0,-1.8896,-1.8927,-1.8976,-1.9036,-1.9078,-1.9081,-1.9129,-1.9163,-1.9216,-1.9259,-1.9305,-1.937,-1.9425,-1.9464,-1.952,-1.955,-1.9555,-1.9564,-1.9562,-1.9569,-1.9507,-1.9492,-1.956,-1.956,-1.956,-1.956,-1.956,-1.956,-1.8939,-1.9003,-1.9022,-1.9104,-1.9135,-1.9194,-1.9221,-1.9258,-1.9293,-1.9366,-1.9411,-1.9437,-1.9479,-1.9538,-1.9588,-1.9598,-1.9618,-1.9627,-1.9638,-1.9579,-1.9573,-1.9566,-1.9552,-1.9631,-1.9631,-1.9695,-1.9695,-1.9696]}]]